Time,TemperatureF,DewpointF,PressureIn,WindDirection,WindDirectionDegrees,WindSpeedMPH,WindSpeedGustMPH,Humidity,HourlyPrecipIn,Conditions,Clouds,dailyrainin,SoftwareType,DateUTC
2013-03-22 00:12:00,27.0,-99.9,-100.00,SW,218,3.0,-999.0,-999,0.00,,,0.00,,2013-03-22 05:12:00,
2013-03-22 00:22:00,27.0,-99.9,-100.00,SW,218,3.0,-999.0,-999,0.00,,,0.00,,2013-03-22 05:22:00,
2013-03-22 00:32:00,27.0,-99.9,-100.00,SW,223,3.0,-999.0,-999,0.00,,,0.00,,2013-03-22 05:32:00,
2013-03-22 00:42:00,27.0,-99.9,-100.00,SW,223,3.0,-999.0,-999,0.00,,,0.00,,2013-03-22 05:42:00,
2013-03-22 00:52:00,27.0,-99.9,-100.00,SW,223,3.0,-999.0,-999,0.00,,,0.00,,2013-03-22 05:52:00,
2013-03-22 01:02:00,27.0,-99.9,-100.00,SSW,213,4.0,-999.0,-999,0.00,,,0.00,,2013-03-22 06:02:00,
2013-03-22 01:13:00,27.0,-99.9,-100.00,SSW,213,4.0,-999.0,-999,0.00,,,0.00,,2013-03-22 06:13:00,
2013-03-22 01:22:00,27.0,-99.9,-100.00,SSW,213,4.0,-999.0,-999,0.00,,,0.00,,2013-03-22 06:22:00,
2013-03-22 01:32:00,27.0,-99.9,-100.00,SSW,207,3.0,-999.0,-999,0.00,,,0.00,,2013-03-22 06:32:00,
2013-03-22 01:52:00,27.0,-99.9,-100.00,SSW,207,3.0,-999.0,-999,0.00,,,0.00,,2013-03-22 06:52:00,
2013-03-22 02:03:00,26.0,-99.9,-100.00,SW,227,2.0,-999.0,-999,0.00,,,0.00,,2013-03-22 07:03:00,
2013-03-22 02:12:00,26.0,-99.9,-100.00,SW,227,2.0,-999.0,-999,0.00,,,0.00,,2013-03-22 07:12:00,
2013-03-22 02:22:00,26.0,-99.9,-100.00,SW,227,2.0,-999.0,-999,0.00,,,0.00,,2013-03-22 07:22:00,
2013-03-22 02:32:00,26.0,-99.9,-100.00,SW,230,3.0,-999.0,-999,0.00,,,0.00,,2013-03-22 07:32:00,
2013-03-22 02:42:00,26.0,-99.9,-100.00,SW,230,3.0,-999.0,-999,0.00,,,0.00,,2013-03-22 07:42:00,
2013-03-22 02:52:00,26.0,-99.9,-100.00,SW,230,3.0,-999.0,-999,0.00,,,0.00,,2013-03-22 07:52:00,
2013-03-22 03:03:00,25.0,-99.9,-100.00,SW,233,4.0,-999.0,-999,0.00,,,0.00,,2013-03-22 08:03:00,
2013-03-22 03:13:00,25.0,-99.9,-100.00,SW,233,4.0,-999.0,-999,0.00,,,0.00,,2013-03-22 08:13:00,
2013-03-22 03:22:00,25.0,-99.9,-100.00,SW,233,4.0,-999.0,-999,0.00,,,0.00,,2013-03-22 08:22:00,
2013-03-22 03:32:00,26.0,-99.9,-100.00,SW,235,4.0,-999.0,-999,0.00,,,0.00,,2013-03-22 08:32:00,
2013-03-22 03:42:00,26.0,-99.9,-100.00,SW,235,4.0,-999.0,-999,0.00,,,0.00,,2013-03-22 08:42:00,
2013-03-22 03:52:00,26.0,-99.9,-100.00,SW,235,4.0,-999.0,-999,0.00,,,0.00,,2013-03-22 08:52:00,
2013-03-22 04:03:00,25.0,-99.9,-100.00,WSW,250,3.0,-999.0,-999,0.00,,,0.00,,2013-03-22 09:03:00,
2013-03-22 04:12:00,25.0,-99.9,-100.00,WSW,250,3.0,-999.0,-999,0.00,,,0.00,,2013-03-22 09:12:00,
2013-03-22 04:23:00,25.0,-99.9,-100.00,WSW,250,3.0,-999.0,-999,0.00,,,0.00,,2013-03-22 09:23:00,
2013-03-22 04:33:00,25.0,-99.9,-100.00,WSW,247,3.0,-999.0,-999,0.00,,,0.00,,2013-03-22 09:33:00,
2013-03-22 04:42:00,25.0,-99.9,-100.00,WSW,247,3.0,-999.0,-999,0.00,,,0.00,,2013-03-22 09:42:00,
2013-03-22 04:53:00,25.0,-99.9,-100.00,WSW,247,3.0,-999.0,-999,0.00,,,0.00,,2013-03-22 09:53:00,
2013-03-22 05:04:00,25.0,-99.9,-100.00,West,275,3.0,-999.0,-999,0.00,,,0.00,,2013-03-22 10:04:00,
2013-03-22 05:12:00,25.0,-99.9,-100.00,West,275,3.0,-999.0,-999,0.00,,,0.00,,2013-03-22 10:12:00,
2013-03-22 05:23:00,25.0,-99.9,-100.00,West,275,3.0,-999.0,-999,0.00,,,0.00,,2013-03-22 10:23:00,
2013-03-22 05:33:00,26.0,-99.9,-100.00,West,276,3.0,-999.0,-999,0.00,,,0.00,,2013-03-22 10:33:00,
2013-03-22 05:42:00,26.0,-99.9,-100.00,West,276,3.0,-999.0,-999,0.00,,,0.00,,2013-03-22 10:42:00,
2013-03-22 05:52:00,26.0,-99.9,-100.00,West,276,3.0,-999.0,-999,0.00,,,0.00,,2013-03-22 10:52:00,
2013-03-22 06:03:00,26.0,-99.9,-100.00,WSW,254,3.0,-999.0,-999,0.00,,,0.00,,2013-03-22 11:03:00,
2013-03-22 06:12:00,26.0,-99.9,-100.00,WSW,254,3.0,-999.0,-999,0.00,,,0.00,,2013-03-22 11:12:00,
2013-03-22 06:22:00,26.0,-99.9,-100.00,WSW,254,3.0,-999.0,-999,0.00,,,0.00,,2013-03-22 11:22:00,
2013-03-22 06:33:00,26.0,-99.9,-100.00,SSW,212,2.0,-999.0,-999,0.00,,,0.00,,2013-03-22 11:33:00,
2013-03-22 06:42:00,26.0,-99.9,-100.00,SSW,212,2.0,-999.0,-999,0.00,,,0.00,,2013-03-22 11:42:00,
2013-03-22 06:52:00,26.0,-99.9,-100.00,SSW,212,2.0,-999.0,-999,0.00,,,0.00,,2013-03-22 11:52:00,
2013-03-22 07:02:00,27.0,-99.9,-100.00,SSW,192,2.0,-999.0,-999,0.00,,,0.00,,2013-03-22 12:02:00,
2013-03-22 07:12:00,27.0,-99.9,-100.00,SSW,192,2.0,-999.0,-999,0.00,,,0.00,,2013-03-22 12:12:00,
2013-03-22 07:22:00,27.0,-99.9,-100.00,SSW,192,2.0,-999.0,-999,0.00,,,0.00,,2013-03-22 12:22:00,
2013-03-22 07:32:00,28.0,-99.9,-100.00,NNE,29,4.0,-999.0,-999,0.00,,,0.00,,2013-03-22 12:32:00,
2013-03-22 07:42:00,28.0,-99.9,-100.00,NNE,29,4.0,-999.0,-999,0.00,,,0.00,,2013-03-22 12:42:00,
2013-03-22 07:52:00,28.0,-99.9,-100.00,NNE,29,4.0,-999.0,-999,0.00,,,0.00,,2013-03-22 12:52:00,
2013-03-22 08:02:00,28.0,-99.9,-100.00,ENE,61,3.0,-999.0,-999,0.00,,,0.00,,2013-03-22 13:02:00,
2013-03-22 08:13:00,28.0,-99.9,-100.00,ENE,61,3.0,-999.0,-999,0.00,,,0.00,,2013-03-22 13:13:00,
2013-03-22 08:22:00,28.0,-99.9,-100.00,ENE,61,3.0,-999.0,-999,0.00,,,0.00,,2013-03-22 13:22:00,
2013-03-22 08:32:00,29.0,-99.9,-100.00,ENE,75,3.0,-999.0,-999,0.00,,,0.00,,2013-03-22 13:32:00,
2013-03-22 08:42:00,29.0,-99.9,-100.00,ENE,75,3.0,-999.0,-999,0.00,,,0.00,,2013-03-22 13:42:00,
2013-03-22 08:53:00,29.0,-99.9,-100.00,ENE,75,3.0,-999.0,-999,0.00,,,0.00,,2013-03-22 13:53:00,
2013-03-22 09:03:00,29.0,-99.9,-100.00,SE,142,4.0,-999.0,-999,0.00,,,0.00,,2013-03-22 14:03:00,
2013-03-22 09:12:00,29.0,-99.9,-100.00,SE,142,4.0,-999.0,-999,0.00,,,0.00,,2013-03-22 14:12:00,
2013-03-22 09:22:00,29.0,-99.9,-100.00,SE,142,4.0,-999.0,-999,0.00,,,0.00,,2013-03-22 14:22:00,
2013-03-22 09:32:00,30.0,-99.9,-100.00,ESE,117,4.0,-999.0,-999,0.00,,,0.00,,2013-03-22 14:32:00,
2013-03-22 09:43:00,30.0,-99.9,-100.00,ESE,117,4.0,-999.0,-999,0.00,,,0.00,,2013-03-22 14:43:00,
2013-03-22 09:52:00,30.0,-99.9,-100.00,ESE,117,4.0,-999.0,-999,0.00,,,0.00,,2013-03-22 14:52:00,
2013-03-22 10:03:00,30.0,-99.9,-100.00,SE,130,3.0,-999.0,-999,0.00,,,0.00,,2013-03-22 15:03:00,
2013-03-22 10:12:00,30.0,-99.9,-100.00,SE,130,3.0,-999.0,-999,0.00,,,0.00,,2013-03-22 15:12:00,
2013-03-22 10:22:00,30.0,-99.9,-100.00,SE,130,3.0,-999.0,-999,0.00,,,0.00,,2013-03-22 15:22:00,
2013-03-22 10:33:00,32.0,-99.9,-100.00,SE,143,6.0,-999.0,-999,0.00,,,0.00,,2013-03-22 15:33:00,
2013-03-22 10:43:00,32.0,-99.9,-100.00,SE,143,6.0,-999.0,-999,0.00,,,0.00,,2013-03-22 15:43:00,
2013-03-22 10:53:00,32.0,-99.9,-100.00,SE,143,6.0,-999.0,-999,0.00,,,0.00,,2013-03-22 15:53:00,
2013-03-22 11:03:00,33.0,-99.9,-100.00,SE,140,4.0,-999.0,-999,0.00,,,0.00,,2013-03-22 16:03:00,
2013-03-22 11:13:00,33.0,-99.9,-100.00,SE,140,4.0,-999.0,-999,0.00,,,0.00,,2013-03-22 16:13:00,
2013-03-22 11:23:00,33.0,-99.9,-100.00,SE,140,4.0,-999.0,-999,0.00,,,0.00,,2013-03-22 16:23:00,
2013-03-22 11:33:00,35.0,-99.9,-100.00,ESE,102,4.0,-999.0,-999,0.00,,,0.00,,2013-03-22 16:33:00,
2013-03-22 11:42:00,35.0,-99.9,-100.00,ESE,102,4.0,-999.0,-999,0.00,,,0.00,,2013-03-22 16:42:00,
2013-03-22 11:53:00,35.0,-99.9,-100.00,ESE,102,4.0,-999.0,-999,0.00,,,0.00,,2013-03-22 16:53:00,
2013-03-22 12:03:00,34.0,-99.9,-100.00,SE,140,8.0,-999.0,-999,0.00,,,0.00,,2013-03-22 17:03:00,
2013-03-22 12:12:00,34.0,-99.9,-100.00,SE,140,8.0,-999.0,-999,0.00,,,0.00,,2013-03-22 17:12:00,
2013-03-22 12:23:00,34.0,-99.9,-100.00,SE,140,8.0,-999.0,-999,0.00,,,0.00,,2013-03-22 17:23:00,
2013-03-22 12:33:00,35.0,-99.9,-100.00,SE,144,9.0,-999.0,-999,0.00,,,0.00,,2013-03-22 17:33:00,
2013-03-22 12:43:00,35.0,-99.9,-100.00,SE,144,9.0,-999.0,-999,0.00,,,0.00,,2013-03-22 17:43:00,
2013-03-22 12:53:00,35.0,-99.9,-100.00,SE,144,9.0,-999.0,-999,0.00,,,0.00,,2013-03-22 17:53:00,
2013-03-22 13:00:00,38.0,-99.9,-100.00,ESE,119,5.0,-999.0,-999,0.00,,,0.00,,2013-03-22 18:00:00,
2013-03-22 13:02:00,36.0,-99.9,-100.00,SE,139,8.0,-999.0,-999,0.00,,,0.00,,2013-03-22 18:02:00,
2013-03-22 13:12:00,36.0,-99.9,-100.00,SE,139,8.0,-999.0,-999,0.00,,,0.00,,2013-03-22 18:12:00,
2013-03-22 13:22:00,36.0,-99.9,-100.00,SE,139,8.0,-999.0,-999,0.00,,,0.00,,2013-03-22 18:22:00,
2013-03-22 13:33:00,38.0,-99.9,-100.00,ESE,119,5.0,-999.0,-999,0.00,,,0.00,,2013-03-22 18:33:00,
2013-03-22 13:42:00,38.0,-99.9,-100.00,ESE,119,5.0,-999.0,-999,0.00,,,0.00,,2013-03-22 18:42:00,
2013-03-22 13:52:00,38.0,-99.9,-100.00,ESE,119,5.0,-999.0,-999,0.00,,,0.00,,2013-03-22 18:52:00,
2013-03-22 14:30:00,38.0,-99.9,-100.00,SE,145,5.0,-999.0,-999,0.00,,,0.00,,2013-03-22 19:30:00,
2013-03-22 14:33:00,38.0,-99.9,-100.00,SE,129,5.0,-999.0,-999,0.00,,,0.00,,2013-03-22 19:33:00,
2013-03-22 14:43:00,38.0,-99.9,-100.00,SE,129,5.0,-999.0,-999,0.00,,,0.00,,2013-03-22 19:43:00,
2013-03-22 14:52:00,38.0,-99.9,-100.00,SE,129,5.0,-999.0,-999,0.00,,,0.00,,2013-03-22 19:52:00,
2013-03-22 15:02:00,38.0,-99.9,-100.00,SE,145,5.0,-999.0,-999,0.00,,,0.00,,2013-03-22 20:02:00,
2013-03-22 15:13:00,38.0,-99.9,-100.00,SE,145,5.0,-999.0,-999,0.00,,,0.00,,2013-03-22 20:13:00,
2013-03-22 15:22:00,38.0,-99.9,-100.00,SE,145,5.0,-999.0,-999,0.00,,,0.00,,2013-03-22 20:22:00,
2013-03-22 15:43:00,38.0,-99.9,-100.00,SE,140,5.0,-999.0,-999,0.00,,,0.00,,2013-03-22 20:43:00,
2013-03-22 15:52:00,38.0,-99.9,-100.00,SE,140,5.0,-999.0,-999,0.00,,,0.00,,2013-03-22 20:52:00,
2013-03-22 16:03:00,38.0,-99.9,-100.00,SSE,150,4.0,-999.0,-999,0.00,,,0.00,,2013-03-22 21:03:00,
2013-03-22 16:12:00,38.0,-99.9,-100.00,SSE,150,4.0,-999.0,-999,0.00,,,0.00,,2013-03-22 21:12:00,
2013-03-22 16:22:00,38.0,-99.9,-100.00,SSE,150,4.0,-999.0,-999,0.00,,,0.00,,2013-03-22 21:22:00,
2013-03-22 16:33:00,38.0,-99.9,-100.00,SE,126,3.0,-999.0,-999,0.00,,,0.00,,2013-03-22 21:33:00,
2013-03-22 16:43:00,38.0,-99.9,-100.00,SE,126,3.0,-999.0,-999,0.00,,,0.00,,2013-03-22 21:43:00,
2013-03-22 16:53:00,38.0,-99.9,-100.00,SE,126,3.0,-999.0,-999,0.00,,,0.00,,2013-03-22 21:53:00,
2013-03-22 17:03:00,39.0,-99.9,-100.00,East,92,3.0,-999.0,-999,0.00,,,0.00,,2013-03-22 22:03:00,
2013-03-22 17:13:00,39.0,-99.9,-100.00,East,92,3.0,-999.0,-999,0.00,,,0.00,,2013-03-22 22:13:00,
2013-03-22 17:23:00,39.0,-99.9,-100.00,East,92,3.0,-999.0,-999,0.00,,,0.00,,2013-03-22 22:23:00,
2013-03-22 17:32:00,40.0,-99.9,-100.00,ENE,78,4.0,-999.0,-999,0.00,,,0.00,,2013-03-22 22:32:00,
2013-03-22 17:43:00,40.0,-99.9,-100.00,ENE,78,4.0,-999.0,-999,0.00,,,0.00,,2013-03-22 22:43:00,
2013-03-22 17:53:00,40.0,-99.9,-100.00,ENE,78,4.0,-999.0,-999,0.00,,,0.00,,2013-03-22 22:53:00,
2013-03-22 18:02:00,39.0,-99.9,-100.00,East,89,4.0,-999.0,-999,0.00,,,0.00,,2013-03-22 23:02:00,
2013-03-22 18:12:00,39.0,-99.9,-100.00,East,89,4.0,-999.0,-999,0.00,,,0.00,,2013-03-22 23:12:00,
2013-03-22 18:23:00,39.0,-99.9,-100.00,East,89,4.0,-999.0,-999,0.00,,,0.00,,2013-03-22 23:23:00,
2013-03-22 18:33:00,39.0,-99.9,-100.00,ESE,107,3.0,-999.0,-999,0.00,,,0.00,,2013-03-22 23:33:00,
2013-03-22 18:42:00,39.0,-99.9,-100.00,ESE,107,3.0,-999.0,-999,0.00,,,0.00,,2013-03-22 23:42:00,
2013-03-22 18:52:00,39.0,-99.9,-100.00,ESE,107,3.0,-999.0,-999,0.00,,,0.00,,2013-03-22 23:52:00,
2013-03-22 19:02:00,39.0,-99.9,-100.00,East,90,3.0,-999.0,-999,0.00,,,0.00,,2013-03-23 00:02:00,
2013-03-22 19:12:00,39.0,-99.9,-100.00,East,90,3.0,-999.0,-999,0.00,,,0.00,,2013-03-23 00:12:00,
2013-03-22 19:23:00,39.0,-99.9,-100.00,East,90,3.0,-999.0,-999,0.00,,,0.00,,2013-03-23 00:23:00,
2013-03-22 19:33:00,38.0,-99.9,-100.00,North,357,2.0,-999.0,-999,0.00,,,0.00,,2013-03-23 00:33:00,
2013-03-22 19:42:00,38.0,-99.9,-100.00,North,357,2.0,-999.0,-999,0.00,,,0.00,,2013-03-23 00:42:00,
2013-03-22 19:52:00,38.0,-99.9,-100.00,North,357,2.0,-999.0,-999,0.00,,,0.00,,2013-03-23 00:52:00,
2013-03-22 20:04:00,38.0,-99.9,-100.00,NNE,12,5.0,-999.0,-999,0.00,,,0.00,,2013-03-23 01:04:00,
2013-03-22 20:12:00,38.0,-99.9,-100.00,NNE,12,5.0,-999.0,-999,0.00,,,0.00,,2013-03-23 01:12:00,
2013-03-22 20:22:00,38.0,-99.9,-100.00,NNE,12,5.0,-999.0,-999,0.00,,,0.00,,2013-03-23 01:22:00,
2013-03-22 20:33:00,38.0,-99.9,-100.00,ESE,113,3.0,-999.0,-999,0.00,,,0.00,,2013-03-23 01:33:00,
2013-03-22 20:43:00,38.0,-99.9,-100.00,ESE,113,3.0,-999.0,-999,0.00,,,0.00,,2013-03-23 01:43:00,
2013-03-22 20:53:00,38.0,-99.9,-100.00,ESE,113,3.0,-999.0,-999,0.00,,,0.00,,2013-03-23 01:53:00,
2013-03-22 21:02:00,37.0,-99.9,-100.00,SE,131,2.0,-999.0,-999,0.00,,,0.00,,2013-03-23 02:02:00,
2013-03-22 21:13:00,37.0,-99.9,-100.00,SE,131,2.0,-999.0,-999,0.00,,,0.00,,2013-03-23 02:13:00,
2013-03-22 21:23:00,37.0,-99.9,-100.00,SE,131,2.0,-999.0,-999,0.00,,,0.00,,2013-03-23 02:23:00,
2013-03-22 21:32:00,36.0,-99.9,-100.00,South,183,0.0,-999.0,-999,0.00,,,0.00,,2013-03-23 02:32:00,
2013-03-22 21:43:00,36.0,-99.9,-100.00,South,183,0.0,-999.0,-999,0.00,,,0.00,,2013-03-23 02:43:00,
2013-03-22 21:52:00,36.0,-99.9,-100.00,South,183,0.0,-999.0,-999,0.00,,,0.00,,2013-03-23 02:52:00,
2013-03-22 22:03:00,36.0,-99.9,-100.00,NW,316,1.0,-999.0,-999,0.00,,,0.00,,2013-03-23 03:03:00,
2013-03-22 22:12:00,36.0,-99.9,-100.00,NW,316,1.0,-999.0,-999,0.00,,,0.00,,2013-03-23 03:12:00,
2013-03-22 22:23:00,36.0,-99.9,-100.00,NW,316,1.0,-999.0,-999,0.00,,,0.00,,2013-03-23 03:23:00,
2013-03-22 22:34:00,36.0,-99.9,-100.00,SW,235,3.0,-999.0,-999,0.00,,,0.00,,2013-03-23 03:34:00,
2013-03-22 22:44:00,36.0,-99.9,-100.00,SW,235,3.0,-999.0,-999,0.00,,,0.00,,2013-03-23 03:44:00,
2013-03-22 22:54:00,36.0,-99.9,-100.00,SW,235,3.0,-999.0,-999,0.00,,,0.00,,2013-03-23 03:54:00,
2013-03-22 23:03:00,36.0,-99.9,-100.00,SSW,193,3.0,-999.0,-999,0.00,,,0.00,,2013-03-23 04:03:00,
2013-03-22 23:13:00,36.0,-99.9,-100.00,SSW,193,3.0,-999.0,-999,0.00,,,0.00,,2013-03-23 04:13:00,
2013-03-22 23:23:00,36.0,-99.9,-100.00,SSW,193,3.0,-999.0,-999,0.00,,,0.00,,2013-03-23 04:23:00,
2013-03-22 23:33:00,36.0,-99.9,-100.00,SSW,202,2.0,-999.0,-999,0.00,,,0.00,,2013-03-23 04:33:00,
2013-03-22 23:43:00,36.0,-99.9,-100.00,SSW,202,2.0,-999.0,-999,0.00,,,0.00,,2013-03-23 04:43:00,
2013-03-22 23:53:00,36.0,-99.9,-100.00,SSW,202,2.0,-999.0,-999,0.00,,,0.00,,2013-03-23 04:53:00,